Terminal Aerodrome Forecast
Issued by NWS Portland, OR

Home | Current Version | Previous Version | Text Only | Print | Product List | Glossary On
Versions: 1 2 3 4 5 6 7 8 9 10 11 12 13 14 15 16 17 18 19 20 21 22 23 24 25 26 27 28 29 30 31 32 33 34 35 36 37 38 39 40 41 42 43 44 45 46 47
000
FTUS46 KPQR 270520
TAFHIO
TAF
KHIO 270520Z 2706/2806 29005KT P6SM VCSH SCT030 BKN045
     FM270800 21004KT P6SM SCT020 OVC040
     FM271600 26010KT P6SM -SHRA SCT025 BKN040=

USA.gov is the U.S. government's official web portal to all federal, state and local government web resources and services.